Flag for U.S.A. Weather past 2 weeks in Seattle, Washington, U.S.A.

Now
59 °F

Passing clouds.


Feels Like: 59 °F
Forecast: 56 / 74 °F
Wind: No wind

Location: Seattle Boeing Field

Current Time: Jul 26, 2014 at 6:38:03 AM

Latest Report: Jul 26, 2014 at 5:53 AM


Visibility: 10 mi

Pressure: 30.14 "Hg

Humidity: 75%

Dew point: 51 °F

Location of SeattleLocation

Historic Weather in Seattle — Graph

°F

Seattle temperature yesterday

Maximum temperature yesterday: 74 °F (at 3:53 PM)
Minimum temperature yesterday: 57 °F (at 5:53 AM)
Average temperature yesterday: 67 °F

Past Weeks' High & Low Weather Summary

 TemperatureHumidityPressure
High90 °F (Jul 12, 3:53 PM)87% (Jul 23, 7:53 AM)30.21 "Hg (Jul 23, 7:53 AM)
Low57 °F (Jul 18, 5:53 AM)27% (Jul 11, 6:53 PM)29.89 "Hg (Jul 16, 7:53 PM)
Average69 °F60%30.04 "Hg
* Reported Jul 11 4:53 AM — Jul 26 4:53 AM, Seattle, Weather by CustomWeather, © 2014

Note: Actual official high and low records may vary slightly from our data, if they occured in-between our weather recording intervals... More about our weather records

Advertising

Seattle weather history for previous 24 hours

 ConditionsComfort  
Time TempWeatherWind HumidityBarometerVisibility
4:53 AM
Jul 26
59 °FClear.No wind75%30.14 "Hg10 mi
3:53 AM61 °FClear.No wind70%30.13 "Hg10 mi
2:53 AM61 °FClear.No wind70%30.12 "Hg10 mi
1:53 AM62 °FClear.No wind67%30.12 "Hg10 mi
12:53 AM63 °FClear.No wind65%30.11 "Hg10 mi
11:53 PM
Jul 25
64 °FClear.No wind61%30.11 "Hg10 mi
10:53 PM66 °FClear.No wind54%30.10 "Hg10 mi
9:53 PM66 °FClear.No wind56%30.10 "Hg10 mi
8:53 PM67 °FSunny.6 mph57%30.09 "Hg10 mi
7:53 PM71 °FSunny.7 mph47%30.08 "Hg10 mi
6:53 PM73 °FSunny.7 mph44%30.08 "Hg10 mi
5:53 PM74 °FSunny.7 mph43%30.09 "Hg10 mi
4:53 PM74 °FPassing clouds.7 mph43%30.10 "Hg10 mi
3:53 PM74 °FScattered clouds.7 mph43%30.11 "Hg10 mi
2:53 PM73 °FScattered clouds.5 mph44%30.12 "Hg10 mi
1:53 PM72 °FPartly sunny.8 mph48%30.13 "Hg10 mi
1:00 PM72 °FPartly sunny.7 mph47%30.14 "Hg10 mi
11:53 AM69 °FPartly sunny.7 mph57%30.14 "Hg10 mi
10:53 AM68 °FScattered clouds.7 mph57%30.14 "Hg10 mi
9:53 AM66 °FScattered clouds.3 mph59%30.15 "Hg10 mi
8:53 AM64 °FScattered clouds.7 mph65%30.16 "Hg10 mi
7:53 AM63 °FScattered clouds.3 mph68%30.16 "Hg10 mi
6:53 AM59 °FScattered clouds.No wind78%30.17 "Hg10 mi
Weather by CustomWeather, © 2014

See weather overviewHow to use our weather pages